Regional Weather Roundup
Issued by NWS

Home | Current Version | Previous Version | Graphics & Text | Print | Product List | Glossary Off
Versions: 1 2 3 4 5 6 7 8 9 10 11 12 13 14 15 16 17 18 19 20 21 22 23 24 25 26 27 28 29 30 31 32 33 34 35 36 37 38 39 40 41 42 43 44 45 46 47 48 49 50

767
ASUS43 KMKX 071021
RWRWI

WISCONSIN REGIONAL WEATHER ROUNDUP
NATIONAL WEATHER SERVICE MILWAUKEE/SULLIVAN WI
400 AM CST WED DEC 07 2016

NOTE: "FAIR" INDICATES FEW OR NO CLOUDS BELOW 12,000 FEET WITH NO
SIGNIFICANT WEATHER AND/OR OBSTRUCTIONS TO VISIBILITY.

WIZ001-002-006>008-014>016-023>028-071100-
NORTHWEST WISCONSIN

CITY           SKY/WX    TMP DP  RH WIND       PRES   REMARKS
SUPERIOR ARPT  CLOUDY    20  13  72 W16G25    29.70R WCI   6
ASHLAND        CLOUDY    21  13  71 SW25G35   29.68R WCI   4
HAYWARD        LGT SNOW  18  11  74 SW10G25   29.72S WCI   6
SIREN          FLURRIES  18  11  73 W14G22    29.79R WCI   4
CUMBERLAND     FLURRIES  18  10  73 W20G26    29.78R WCI   1
RICE LAKE      FLURRIES  19  12  74 SW20      29.81R WCI   3
CHETEK         FLURRIES  18  13  78 SW9G20    29.81R WCI   7
LADYSMITH      FLURRIES  19  14  80 SW15      29.78R WCI   5
EAU CLAIRE     FLURRIES  17  11  77 SW20G28   29.87R WCI   1
MENOMONIE      FLURRIES  18  12  77 SW20      29.87R WCI   2
NEW RICHMOND   FLURRIES  19  11  71 W18G25    29.85R WCI   3
OSCEOLA        FLURRIES  18  11  73 W16G23    29.89R WCI   4
$$

WIZ003>005-009-010-017-018-071100-
NORTH CENTRAL WISCONSIN

CITY           SKY/WX    TMP DP  RH WIND       PRES   REMARKS
MANITOWISH WTR FLURRIES  17  13  86 W14G21    29.65S WCI   3
ARBOR VITAE    LGT SNOW  19  14  80 W12G20    29.67S WCI   7
WOODRUFF       LGT SNOW  19  14  80 W12G20    29.67S WCI   7
RHINELANDER    LGT SNOW  18  13  80 W14G23    29.70S WCI   4
EAGLE RIVER    FLURRIES  18  11  77 W17G24    29.66R WCI   2
LAND O LAKES   LGT SNOW  19  13  79 SW8G21    29.66S WCI   9
PHILLIPS       FLURRIES  17  13  86 SW12G18   29.70S WCI   4
TOMAHAWK       LGT SNOW  16  11  80 SW6       29.73S WCI   8
MEDFORD        FLURRIES  15  10  81 SW18G26   29.78R WCI  -2
MERRILL        LGT SNOW  17  12  82 W18G24    29.77S WCI   0
$$

WIZ029-030-035-036-043>047-071100-
CENTRAL WISCONSIN

CITY           SKY/WX    TMP DP  RH WIND       PRES   REMARKS
WAUSAU         FLURRIES  18  12  77 W16G29    29.80R WCI   3
MOSINEE        FLURRIES  19  16  86 SW20G28   29.82R WCI   4
MARSHFIELD     CLOUDY    17  10  74 W20G28    29.82R WCI   1
STEVENS POINT  CLOUDY    18  11  75 SW21G26   29.85R WCI   1
WAUPACA        CLOUDY    24  16  70 W16G25    29.87R WCI  11
WAUTOMA        PTCLDY    19  14  79 W15       29.89S WCI   5
WISC RAPIDS    CLOUDY    19  12  74 W18G28    29.88R WCI   4
CAMP DOUGLAS   MOCLDY    19  12  74 W18       29.92R WCI   4
$$

WIZ011>013-019>022-031-037>040-048>050-071100-
NORTHEAST WISCONSIN

CITY           SKY/WX    TMP DP  RH WIND       PRES   REMARKS
ANTIGO         FLURRIES  16  12  84 W18       29.74S WCI   0
SHAWANO        CLOUDY    25  16  68 W10G20    29.82S WCI  15
OCONTO         CLOUDY    25  15  66 SW17G25   29.81R WCI  11
STURGEON BAY   CLOUDY    26  17  68 W18G25    29.79S WCI  13
GREEN BAY      FLURRIES  26  16  65 W23G31    29.84R WCI  11
MANITOWOC      PTCLDY    25  17  72 SW16G24   29.86R WCI  12
APPLETON       CLOUDY    23  14  68 W17G25    29.85R WCI   9
CLINTONVILLE   CLOUDY    23  14  68 W20       29.84R WCI   8
OSHKOSH        PTCLDY    22  15  75 SW12G18   29.88R WCI  10
$$

WIZ032>034-041-042-053>061-071100-
SOUTHWEST WISCONSIN

CITY           SKY/WX    TMP DP  RH WIND       PRES   REMARKS
LA CROSSE      CLOUDY    20  11  68 W12       29.98S WCI   8
SPARTA         CLOUDY    19  13  76 W7G17     29.95S WCI  10
VIROQUA        CLOUDY    15  10  81 W18G26    29.95R WCI  -1
BOSCOBEL       CLOUDY    21  12  68 W10       30.03R WCI  10
PRAIRIE DU CHI CLOUDY    20  12  69 W12       30.05R WCI   8
PLATTEVILLE    CLOUDY    20  15  81 W21G26    30.02R WCI   4
$$

WIZ056-057-062-063-064-067-068-071100-
SOUTH CENTRAL WISCONSIN

CITY           SKY/WX    TMP DP  RH WIND       PRES   REMARKS
REEDSBURG      CLOUDY    20  14  76 W13G20    29.95R WCI   8
BARABOO/DELLS  PTCLDY    21  15  76 W17       29.93R WCI   7
LONE ROCK      CLOUDY    22  13  68 W16G24    30.00R WCI   8
MINERAL POINT  FLURRIES  21  18  86 W22       29.98R WCI   5
MADISON        CLOUDY    21  14  74 W8G20     29.96R WCI  11
MIDDLETON      NOT AVBL
WATERTOWN      PTCLDY    21  16  80 SW15      29.94R WCI   8
MONROE         PTCLDY    21  16  79 W23G32    29.98R WCI   5
JANESVILLE     CLEAR     23  18  80 W12       30.00R WCI  12
$$

WIZ051-052-058>065-066-070>072-071100-
SOUTHEAST WISCONSIN

CITY           SKY/WX    TMP DP  RH WIND       PRES   REMARKS
MILWAUKEE      CLEAR     25  15  66 W17G26    29.94S WCI  12
WAUKESHA       PTCLDY    21  16  79 W14       29.95R WCI   8
MILWAUKEE/TIMM CLEAR     23  14  68 W13G20    29.94S WCI  11
RACINE         CLEAR     24  15  68 W13G21    29.97R WCI  12
BURLINGTON     CLEAR     23  16  75 W13G24    29.97R WCI  11
KENOSHA        CLEAR     24  16  71 W18G28    29.96S WCI  10
FOND DU LAC    CLEAR     23  14  68 SW12      29.89R WCI  12
SHEBOYGAN      CLEAR     24  16  71 W21G32    29.87R WCI   9
WEST BEND      MOCLDY    23  18  80 SW8G22    29.91R WCI  14
JUNEAU         CLEAR     20  15  79 SW17G24   29.93R WCI   6
$$

LSZ147-162-071100-
LAKE SUPERIOR

STATION/POSITION TIME  TEMP    WIND        PRES    WAVE
                       AIR SEA DIR/SP/G            HT/PER
                 (UTC) (F)     (DEG/KT/KT) (MB)    (FT/S)
DEVILS ISLAND    1000   26     250/ 34/ 42 1003.3R
PORT WING        0947   23     230/ 14/ 25 1005.1R
SAXON HARBOR     0930   22     210/  7/ 20 1005.1S
$$

LMZ867-665-643>646-071100-
LAKE MICHIGAN

STATION/POSITION TIME  TEMP    WIND        PRES    WAVE
                       AIR SEA DIR/SP/G            HT/PER
                 (UTC) (F)     (DEG/KT/KT) (MB)    (FT/S)
CHAMBERS ISLAND  0940   27     220/ 11/ 27 1007.8R
NORTHPORT PIER   0942   28     250/ 10/ 18 1008.1R
SISTER BAY       0938   29     280/ 25/ 29   N/A
KEWAUNEE LAKESHO 0954   27     320/ 14/ 18 1009.5R
SHEBOYGAN LAKESH 1000   25     240/ 18/ 24 1012.4R
PORT WASHINGTON  0930   25     250/ 12/ 20 1013.9R
MILWAUKEE LAKESH 1000   25     260/ 17/ 24   N/A
KENOSHA   LAKESH 1000   25     260/ 19/ 25 1014.9
$$

TC  - TEMPERATURE IN CELSIUS
VSB - VISIBILITY IN STATUTE MILES
WCI - WIND CHILL INDEX
HX  - HEAT INDEX





USA.gov is the U.S. government's official web portal to all federal, state and local government web resources and services.